Weather History for Hayward, WI

Change the Weather History Date:

Monday, February 4, 2013

  Actual Average Record
Temperature  
Mean Temperature -3 °F -  
Max Temperature 12 °F 22 °F 50 °F (2005)
Min Temperature -18 °F 1 °F -29 °F (1970)
Degree Days  
Heating Degree Days 68    
Moisture  
Dew Point -10 °F    
Average Humidity 60    
Maximum Humidity 83    
Minimum Humidity 34    
Precipitation  
Precipitation 0.00 in - - ()
Sea Level Pressure  
Sea Level Pressure 30.00 in    
Wind  
Wind Speed 2 mph (SSW)    
Max Wind Speed 9 mph    
Max Gust Speed -    
Visibility 9 miles    
Events Snow    
Averages and records for this station are not official NWS values.
T = Trace of Precipitation, MM = Missing Value Source: NWS Daily Summary

Daily Weather History Graph

Daily Weather History Graph

Search for Another Location

Airport:

Trip Planner

Search our weather history database for the weather conditions in past years. The results will help you decide how hot, cold, wet, or windy it might be!

Date:

Astronomy

Feb. 04, 2013 Rise Set
Actual Time 7:24 AM CST 5:16 PM CST
Civil Twilight 6:52 AM CST 5:47 PM CST
Nautical Twilight 6:16 AM CST 6:23 PM CST
Astronomical Twilight 5:41 AM CST 6:58 PM CST
Moon 2:04 AM CST (2/4) 11:35 AM CST (2/4)
Length of Visible Light 10h 55m
Length of Day
9h 52m
Last Quarter, 37% of the Moon is Illuminated
Feb 4
Last Quarter
Feb 10
New
Feb 17
First Quarter
Feb 25
Full
Mar 4
Last Quarter

Hourly Weather History & Observations

Time (CST) Temp. Windchill Dew Point Humidity Pressure Visibility Wind Dir Wind Speed Gust Speed Precip Events Conditions
12:53 AM -0.0 °F - -6.0 °F 76% 30.05 in 10.0 mi Calm Calm - N/A   Mostly Cloudy
1:53 AM -6.0 °F - -11.0 °F 79% 30.06 in 10.0 mi Calm Calm - N/A   Clear
2:53 AM -9.9 °F - -16.1 °F 74% 30.07 in 10.0 mi Calm Calm - N/A   Clear
4:53 AM -16.1 °F - -23.1 °F 71% 30.09 in 10.0 mi Calm Calm - N/A   Clear
5:53 AM -18.0 °F - -25.1 °F 70% 30.10 in 10.0 mi Calm Calm - N/A   Clear
6:53 AM -18.9 °F - -26.0 °F 70% 30.11 in 10.0 mi Calm Calm - N/A   Clear
7:53 AM -18.9 °F - -25.1 °F 74% 30.11 in 9.0 mi Calm Calm - N/A   Clear
8:53 AM -13.0 °F - -18.0 °F 78% 30.11 in 10.0 mi Calm Calm - N/A   Clear
9:53 AM -4.0 °F - -8.0 °F 83% 30.10 in 10.0 mi Calm Calm - N/A   Clear
10:53 AM 3.9 °F -5.3 °F -5.1 °F 66% 30.10 in 10.0 mi Variable 4.6 mph - N/A   Clear
11:53 AM 8.1 °F 1.4 °F -9.0 °F 46% 30.07 in 10.0 mi Variable 3.5 mph - N/A   Clear
12:53 PM 10.0 °F 3.6 °F -11.0 °F 38% 30.04 in 10.0 mi WSW 3.5 mph - N/A   Clear
1:53 PM 12.0 °F 2.7 °F -9.9 °F 37% 30.02 in 10.0 mi Variable 5.8 mph - N/A   Clear
2:53 PM 12.9 °F 5.2 °F -11.0 °F 34% 30.01 in 10.0 mi Variable 4.6 mph - N/A   Clear
3:53 PM 12.0 °F 4.1 °F -9.0 °F 39% 30.01 in 10.0 mi West 4.6 mph - N/A   Overcast
4:53 PM 10.9 °F 2.9 °F -9.0 °F 40% 29.99 in 10.0 mi SW 4.6 mph - N/A   Clear
5:53 PM 9.0 °F - -8.0 °F 46% 30.00 in 10.0 mi Calm Calm - N/A   Clear
6:53 PM 8.1 °F - -8.0 °F 48% 29.97 in 10.0 mi Calm Calm - N/A   Clear
7:53 PM 8.1 °F - -7.1 °F 50% 29.95 in 10.0 mi Calm Calm - N/A   Clear
8:53 PM 3.9 °F - -6.0 °F 64% 29.94 in 10.0 mi Calm Calm - N/A   Mostly Cloudy
9:53 PM 8.1 °F -0.5 °F -5.1 °F 55% 29.88 in 10.0 mi South 4.6 mph - N/A   Overcast
10:53 PM 9.0 °F 0.6 °F -4.0 °F 56% 29.87 in 10.0 mi South 4.6 mph - N/A   Overcast
11:33 PM 10.4 °F -0.4 °F -0.4 °F 62% 29.77 in 2.0 mi Variable 6.9 mph - 0.00 in Snow Light Snow
11:41 PM 8.6 °F 0.1 °F 1.4 °F 73% 29.76 in 1.2 mi Variable 4.6 mph - 0.00 in Snow Light Snow
11:51 PM 8.6 °F -4.7 °F 3.2 °F 79% 29.75 in 1.0 mi South 9.2 mph - 0.00 in Snow Light Snow